Location: Peterborough
(44.3091°N, 78.3197°W)
Time: 23:41:16
(UTC-04:00)

Courier 1B - Pass Details

Date: 25 February 2024
Orbit: 962 x 1208 km, 28.3° (Epoch: 17 April)

Event Time Altitude Azimuth Distance (km) Brightness Sun altitude
Exits shadow 04:39:12 13° 186° (S) 2,577 9.5 -25.5°
Drops below altitude 10° 04:40:59 10° 171° (S) 2,785 9.8 -25.2°
Sets 04:45:26 0° 145° (SE) 3,790 10.9 -24.4°
